WetterOnline ( http://www.wetteronline.ch )

Wetter aktuell München

Aktuelles Wetter: München/Stadt (535m)

6-stündlich | Neueste Meldungen
Ortszeit Temperatur Wetter
Sa, 23.03. 19:00 14.0° C leicht bewölkt
Sa, 23.03. 13:00 17.2° C wolkenlos
Sa, 23.03. 7:00 4.2° C fast wolkenlos
Sa, 23.03. 1:00 6.8° C wolkenlos
Fr, 22.03. 19:00 11.7° C wolkig
Fr, 22.03. 13:00 14.0° C leicht bewölkt
Fr, 22.03. 7:00 0.6° C fast wolkenlos
Fr, 22.03. 1:00 3.4° C wolkenlos
Ortszeit Temperatur Wetter
Sa, 23.03. 19:30 12.5° C leicht bewölkt
Sa, 23.03. 19:20 12.5° C leicht bewölkt
Sa, 23.03. 19:10 13.1° C leicht bewölkt
Sa, 23.03. 19:00 14.0° C leicht bewölkt
Sa, 23.03. 18:50 14.0° C leicht bewölkt
Sa, 23.03. 18:40 14.5° C wolkenlos
Sa, 23.03. 18:30 15.6° C fast wolkenlos
Sa, 23.03. 18:00 16.5° C wolkenlos
Sa, 23.03. 17:30 17.2° C wolkenlos
Sa, 23.03. 17:00 17.8° C wolkenlos
Sa, 23.03. 16:30 18.0° C wolkenlos
Ortszeit Relative Feuchte Sichtweite
Sa, 23.03. 19:00 45% 18 km
Sa, 23.03. 13:00 33% 23 km
Sa, 23.03. 7:00 76% 35 km
Sa, 23.03. 1:00 65% 35 km
Fr, 22.03. 19:00 47% 35 km
Fr, 22.03. 13:00 40% 50 km
Fr, 22.03. 7:00 78% 30 km
Fr, 22.03. 1:00 62% 40 km
Ortszeit Relative Feuchte Sichtweite
Sa, 23.03. 19:30 51% 17 km
Sa, 23.03. 19:20 51% -
Sa, 23.03. 19:10 49% -
Sa, 23.03. 19:00 45% 18 km
Sa, 23.03. 18:50 45% -
Sa, 23.03. 18:40 43% -
Sa, 23.03. 18:30 39% 19 km
Sa, 23.03. 18:00 36% 22 km
Sa, 23.03. 17:30 31% 21 km
Sa, 23.03. 17:00 33% 20 km
Sa, 23.03. 16:30 31% 20 km
Ortszeit Niederschlagsmenge Niederschlagsart
Sa, 23.03. 19:00 0.0 l/m2 in 12 Std. -
Sa, 23.03. 13:00 0.0 l/m2 in 6 Std. -
Sa, 23.03. 7:00 0.0 l/m2 in 12 Std. -
Sa, 23.03. 1:00 0.0 l/m2 in 6 Std. -
Fr, 22.03. 19:00 0.0 l/m2 in 12 Std. -
Fr, 22.03. 13:00 0.0 l/m2 in 6 Std. -
Fr, 22.03. 7:00 0.0 l/m2 in 12 Std. -
Fr, 22.03. 1:00 0.0 l/m2 in 6 Std. -
Ortszeit Niederschlagsmenge Niederschlagsart
Sa, 23.03. 19:30 0.0 l/m2 in 1 Std. -
Sa, 23.03. 19:20 keine Meldung -
Sa, 23.03. 19:10 keine Meldung -
Sa, 23.03. 19:00 0.0 l/m2 in 1 Std. -
Sa, 23.03. 18:50 keine Meldung -
Sa, 23.03. 18:40 keine Meldung -
Sa, 23.03. 18:30 0.0 l/m2 in 1 Std. -
Sa, 23.03. 18:00 0.0 l/m2 in 1 Std. -
Sa, 23.03. 17:30 0.0 l/m2 in 1 Std. -
Sa, 23.03. 17:00 0.0 l/m2 in 1 Std. -
Sa, 23.03. 16:30 0.0 l/m2 in 1 Std. -
Ortszeit Stärke Spitze Richtung
km/h Bft. km/h Grad Sektor
Sa, 23.03. 19:00 6 1 24 10° N
Sa, 23.03. 13:00 9 2 19 310° NW
Sa, 23.03. 7:00 7 2 14 210° SW
Sa, 23.03. 1:00 9 2 15 200° S
Fr, 22.03. 19:00 7 2 18 110° O
Fr, 22.03. 13:00 11 2 22 80° O
Fr, 22.03. 7:00 4 1 14 50° NO
Fr, 22.03. 1:00 6 1 15 80° O
Ortszeit Stärke Spitze Richtung
km/h Bft. km/h Grad Sektor
Sa, 23.03. 19:30 4 1 7 20° N
Sa, 23.03. 19:20 4 1 - 20° N
Sa, 23.03. 19:10 6 1 - 360° N
Sa, 23.03. 19:00 6 1 11 10° N
Sa, 23.03. 18:50 6 1 - 10° N
Sa, 23.03. 18:40 6 1 - 10° N
Sa, 23.03. 18:30 7 2 11 10° N
Sa, 23.03. 18:00 7 2 14 10° N
Sa, 23.03. 17:30 9 2 15 10° N
Sa, 23.03. 17:00 9 2 17 350° N
Sa, 23.03. 16:30 7 2 17 340° N
Ortszeit Untergrenze Bedeckung Gattung
total tief tief mittel hoch
Sa, 23.03. 19:00 10500 m 4/8 0/8 - - -
Sa, 23.03. 13:00 - 0/8 0/8 - - -
Sa, 23.03. 7:00 10500 m 2/8 0/8 - - -
Sa, 23.03. 1:00 - 0/8 0/8 - - -
Fr, 22.03. 19:00 9000 m 8/8 0/8 - - -
Fr, 22.03. 13:00 8700 m 8/8 0/8 - - -
Fr, 22.03. 7:00 9000 m 1/8 0/8 - - -
Fr, 22.03. 1:00 - 0/8 0/8 - - -
Ortszeit Bedeckungsgrad in Achtel und Wolkenuntergrenze
Sa, 23.03. 19:30 3(10500m)
Sa, 23.03. 19:20 3(10500m)
Sa, 23.03. 19:10 6(10500m)
Sa, 23.03. 19:00 4(10500m)
Sa, 23.03. 18:50 4(10500m)
Sa, 23.03. 18:40 keine Wolken
Sa, 23.03. 18:30 1(10500m)
Sa, 23.03. 18:00 2(10500m)
Sa, 23.03. 17:30 keine Wolken
Sa, 23.03. 17:00 keine Wolken
Sa, 23.03. 16:30 keine Wolken
Ortszeit Luftdruck NN (hPa) Tendenz (hPa in 3 Std.)
Sa, 23.03. 19:00 1025 0,0
Sa, 23.03. 13:00 1026 - 1,1
Sa, 23.03. 7:00 1030 + 0,5
Sa, 23.03. 1:00 1029 - 0,5
Fr, 22.03. 19:00 1029 - 0,3
Fr, 22.03. 13:00 1030 - 0,5
Fr, 22.03. 7:00 1033 + 0,4
Fr, 22.03. 1:00 1033 - 0,5
Ortszeit Luftdruck NN (hPa) Tendenz (hPa in 3 Std.)
Sa, 23.03. 19:30 1026 + 0,3
Sa, 23.03. 19:20 1026 keine Meldung
Sa, 23.03. 19:10 1026 keine Meldung
Sa, 23.03. 19:00 1025 0,0
Sa, 23.03. 18:50 1025 keine Meldung
Sa, 23.03. 18:40 1025 keine Meldung
Sa, 23.03. 18:30 1025 - 0,2
Sa, 23.03. 18:00 1025 - 0,4
Sa, 23.03. 17:30 1025 - 0,6
Sa, 23.03. 17:00 1025 - 0,7
Sa, 23.03. 16:30 1025 - 1,0
Ortszeit Schneehöhe (cm)
Sa, 23.03. 19:00 0
Sa, 23.03. 13:00 0
Sa, 23.03. 7:00 0
Sa, 23.03. 1:00 0
Fr, 22.03. 19:00 0
Fr, 22.03. 13:00 0
Fr, 22.03. 7:00 0
Fr, 22.03. 1:00 0
Ortszeit Schneehöhe (cm)
Sa, 23.03. 19:30 0
Sa, 23.03. 19:20 0
Sa, 23.03. 19:10 0
Sa, 23.03. 19:00 0
Sa, 23.03. 18:50 0
Sa, 23.03. 18:40 0
Sa, 23.03. 18:30 0
Sa, 23.03. 18:00 0
Sa, 23.03. 17:30 0
Sa, 23.03. 17:00 0
Sa, 23.03. 16:30 0
Link zu dieser Seite / Seite empfehlen

Das Wetter in ...